+ View the NASA Portal
+ Center for Near-Earth Object Studies
IMPORTANT:
The SSD Announcement email list is now available. Major changes are coming in the near future, including possible hostname and/or URL changes. To be notified of such changes, subscribe to this email list.
Please visit
this page
for more details.
Don't show this message again
JPL Small-Body Database Browser
Search:
[
help
]
351880 (2006 SR130)
Classification:
Main-belt Asteroid
SPK-ID:
2351880
[
Ephemeris
|
Orbit Diagram
|
Orbital Elements
|
Mission Design
|
Physical Parameters
|
Discovery Circumstances
]
[ show orbit diagram ]
Orbital Elements at Epoch 2458600.5 (2019-Apr-27.0) TDB
Reference:
JPL 8
(heliocentric ecliptic J2000)
Element
Value
Uncertainty (1-sigma)
Units
e
.2724871621258373
6.1516e-08
a
3.084781788474353
3.5715e-08
au
q
2.244218353155512
1.9438e-07
au
i
25.1149250372003
9.202e-06
deg
node
344.2964295787369
1.5655e-05
deg
peri
80.48804210296547
2.7544e-05
deg
M
87.32412737038484
1.5696e-05
deg
t
p
2458120.471687751284
(2018-Jan-01.97168775)
8.6625e-05
TDB
period
1978.951265972165
5.42
3.4368e-05
9.409e-08
d
yr
n
.1819145353350321
3.1592e-09
deg/d
Q
3.925345223793194
4.5446e-08
au
Orbit Determination Parameters
# obs. used (total)
261
data-arc span
4585 days (12.55 yr)
first obs. used
2006-09-17
last obs. used
2019-04-07
planetary ephem.
DE431
SB-pert. ephem.
SB431-N16
condition code
0
norm. resid. RMS
.58678
source
ORB
producer
Otto Matic
solution date
2019-Jul-14 07:56:30
Additional Information
Earth MOID
= 1.40037 au
Jupiter MOID
= 2.06143 au
T_jup
= 3.028
[ show covariance matrix ]
[
Ephemeris
|
Orbit Diagram
|
Orbital Elements
|
Mission Design
|
Physical Parameters
|
Discovery Circumstances
]
Physical Parameter Table
Parameter
Symbol
Value
Units
Sigma
Reference
Notes
absolute magnitude
H
15.4
n/a
MPO391824
351880 (2006 SR130)
Discovered 2006-Sep-17 by CSS at Catalina
Reference:
20130127/Numbers.arc
Last Updated:
2013-01-31
[
Ephemeris
|
Orbit Diagram
|
Orbital Elements
|
Mission Design
|
Physical Parameters
|
Discovery Circumstances
]
2019-Dec-09 21:47 UT
(server date/time)
Site Manager:
Ryan S. Park
Webmaster
:
Alan B. Chamberlin